カタログに戻る

USA 290

運用中ナビゲーションVLEO
NORAD 43941·PAYLOAD·🇺🇸 United States

打ち上げ Jan 19, 2019 から Vandenberg Space Force Base

Loading…

次のパス (今後24時間)

TLE

古いSource: Mike McCants

元期: Aug 11, 2026, 03:06 UTC

1 43941U 19004A   26223.12917621 0.00008000  00000-0  12666-3 0    04
2 43941  73.5475 344.6601 0018900 127.1473 232.8526 15.53092134    02

AllMySatでUSA 290をリアルタイム追跡

Download on the App Store